Zurück zum Katalog

H-2A R/B

AktivHEO
NORAD 28938·ROCKET BODY·🇯🇵 Japan

Gestartet Feb 18, 2006 von Tanegashima Space Center

Loading…

Nächste Überflüge (nächste 24 Stunden)

TLE

AktuellSource: Space-Track

Epoche: Sep 13, 2026, 19:26 UTC

1 28938U 06004B   26256.81022073  .00006173  00000-0  73804-3 0  9996
2 28938  28.3002 116.6186 6602223 309.1662   8.7259  3.19689756203633

Verfolge H-2A R/B in Echtzeit mit AllMySat

Download on the App Store